Weather History for Morris, IL

Change the Weather History Date:

Saturday, July 6, 2013

  Actual Average (KLOT) Record (KLOT)
Temperature  
Mean Temperature 73 °F 74 °F  
Max Temperature 81 °F 84 °F 101 °F (2012)
Min Temperature 65 °F 64 °F 51 °F (2001)
Degree Days  
Heating Degree Days 0 0  
Month to date heating degree days 0  
Since 1 June heating degree days 33  
Since 1 July heating degree days 0  
Cooling Degree Days 8 9  
Month to date cooling degree days 54  
Year to date cooling degree days 292  
Since 1 June cooling degree days 234  
Growing Degree Days 23 (Base 50)    
Moisture  
Dew Point 66 °F    
Average Humidity 78    
Maximum Humidity 100    
Minimum Humidity 55    
Precipitation  
Precipitation 0.00 in 0.14 in 0.75 in (2003)
Month to date precipitation 0.81  
Year to date precipitation 19.85  
Sea Level Pressure  
Sea Level Pressure 30.04 in    
Wind  
Wind Speed 3 mph (SSE)    
Max Wind Speed 8 mph    
Max Gust Speed -    
Visibility 8 miles    
Events      
T = Trace of Precipitation, MM = Missing Value Source: NWS Daily Summary

Daily Weather History Graph

Daily Weather History Graph

Search for Another Location

Airport:

Trip Planner

Search our weather history database for the weather conditions in past years. The results will help you decide how hot, cold, wet, or windy it might be!

Date:

Astronomy

Jul. 06, 2013 Rise Set
Actual Time 5:26 AM CDT 8:29 PM CDT
Civil Twilight 4:53 AM CDT 9:03 PM CDT
Nautical Twilight 4:10 AM CDT 9:45 PM CDT
Astronomical Twilight 3:20 AM CDT 10:36 PM CDT
Moon 4:13 AM CDT (7/6) 7:10 PM CDT (7/6)
Length of Visible Light 16h 10m
Length of Day
15h 03m
Waning Crescent, 2% of the Moon is Illuminated
Jul 6
Waning Crescent
Jul 8
New
Jul 15
First Quarter
Jul 22
Full
Jul 29
Last Quarter

Hourly Weather History & Observations

Time (CDT) Temp. Heat Index Dew Point Humidity Pressure Visibility Wind Dir Wind Speed Gust Speed Precip Events Conditions
12:15 AM 69.3 °F - 64.4 °F 84% 30.05 in 7.0 mi SSE 3.5 mph - N/A   Clear
12:35 AM 69.8 °F - 64.6 °F 83% 30.05 in 10.0 mi South 3.5 mph - N/A   Clear
12:55 AM 68.7 °F - 64.9 °F 88% 30.06 in 10.0 mi SSE 3.5 mph - N/A   Clear
1:15 AM 68.7 °F - 65.5 °F 89% 30.05 in 7.0 mi SSE 3.5 mph - N/A   Clear
1:35 AM 68.9 °F - 65.3 °F 88% 30.05 in 10.0 mi SSE 3.5 mph - N/A   Clear
1:55 AM 68.4 °F - 66.0 °F 92% 30.05 in 7.0 mi Calm Calm - N/A   Clear
2:15 AM 68.0 °F - 65.8 °F 93% 30.06 in 7.0 mi SSE 3.5 mph - N/A   Clear
2:35 AM 68.0 °F - 66.2 °F 94% 30.06 in 7.0 mi Calm Calm - N/A   Clear
2:55 AM 67.5 °F - 66.2 °F 96% 30.06 in 7.0 mi Calm Calm - N/A   Clear
3:15 AM 68.0 °F - 66.6 °F 95% 30.06 in 7.0 mi Calm Calm - N/A   Clear
3:35 AM 68.4 °F - 66.6 °F 94% 30.05 in 7.0 mi Calm Calm - N/A   Clear
3:55 AM 67.8 °F - 66.7 °F 96% 30.05 in 7.0 mi Calm Calm - N/A   Clear
4:15 AM 66.4 °F - 65.7 °F 98% 30.05 in 4.0 mi Calm Calm - N/A   Clear
4:35 AM 66.2 °F - 65.8 °F 99% 30.05 in 3.0 mi Calm Calm - N/A   Clear
4:55 AM 65.3 °F - 64.9 °F 99% 30.06 in 2.5 mi SE 3.5 mph - N/A   Clear
5:15 AM 65.3 °F - 65.3 °F 100% 30.06 in 1.8 mi SE 3.5 mph - N/A   Mist
5:35 AM 65.8 °F - 65.8 °F 100% 30.06 in 1.2 mi Calm Calm - N/A   Mist
5:55 AM 66.2 °F - 66.2 °F 100% 30.06 in 1.2 mi Calm Calm - N/A   Mist
6:15 AM 66.4 °F - 66.4 °F 100% 30.06 in 1.8 mi Calm Calm - N/A   Mist
6:35 AM 66.2 °F - 66.0 °F 99% 30.06 in 2.0 mi Calm Calm - N/A   Clear
6:55 AM 67.6 °F - 67.5 °F 99% 30.07 in 2.5 mi Calm Calm - N/A   Clear
7:15 AM 68.4 °F - 67.8 °F 98% 30.07 in 4.0 mi Calm Calm - N/A   Clear
7:35 AM 69.6 °F - 68.2 °F 95% 30.07 in 5.0 mi Calm Calm - N/A   Clear
7:55 AM 71.1 °F - 68.9 °F 93% 30.07 in 5.0 mi Calm Calm - N/A   Clear
8:15 AM 72.3 °F - 68.9 °F 89% 30.07 in 7.0 mi South 4.6 mph - N/A   Clear
8:35 AM 73.4 °F - 68.9 °F 86% 30.07 in 7.0 mi Calm Calm - N/A   Clear
8:55 AM 74.5 °F - 68.7 °F 82% 30.07 in 10.0 mi Calm Calm - N/A   Clear
9:15 AM 76.1 °F - 67.3 °F 74% 30.06 in 10.0 mi Calm Calm - N/A   Clear
9:35 AM 77.0 °F - 66.9 °F 71% 30.06 in 10.0 mi Calm Calm - N/A   Clear
9:55 AM 77.5 °F - 66.0 °F 68% 30.06 in 10.0 mi Calm Calm - N/A   Clear
10:15 AM 77.4 °F - 66.2 °F 68% 30.06 in 10.0 mi SW 3.5 mph - N/A   Scattered Clouds
10:35 AM 77.7 °F - 65.7 °F 66% 30.06 in 10.0 mi SSE 4.6 mph - N/A   Mostly Cloudy
10:55 AM 78.1 °F - 66.6 °F 68% 30.06 in 10.0 mi SE 6.9 mph - N/A   Scattered Clouds
11:15 AM 78.3 °F - 65.5 °F 65% 30.06 in 10.0 mi SSW 5.8 mph - N/A   Clear
11:35 AM 78.8 °F - 66.2 °F 65% 30.05 in 10.0 mi SSE 4.6 mph - N/A   Clear
11:55 AM 79.7 °F - 65.8 °F 62% 30.05 in 10.0 mi South 4.6 mph - N/A   Clear
12:15 PM 80.6 °F 82.4 °F 65.3 °F 59% 30.05 in 10.0 mi SE 6.9 mph - N/A   Clear
12:35 PM 80.4 °F 82.4 °F 65.7 °F 61% 30.05 in 10.0 mi SSE 6.9 mph - N/A   Clear
12:55 PM 80.6 °F 82.5 °F 65.7 °F 60% 30.04 in 10.0 mi South 6.9 mph - N/A   Scattered Clouds
1:15 PM 81.3 °F 83.2 °F 65.3 °F 58% 30.04 in 10.0 mi South 8.1 mph - N/A   Scattered Clouds
1:35 PM 80.6 °F 82.3 °F 64.8 °F 58% 30.04 in 10.0 mi South 5.8 mph - N/A   Clear
1:55 PM 81.7 °F 83.2 °F 64.2 °F 55% 30.03 in 10.0 mi South 4.6 mph - N/A   Clear
2:15 PM 80.8 °F 82.4 °F 64.2 °F 57% 30.03 in 10.0 mi South 4.6 mph - N/A   Clear
2:35 PM 81.0 °F 82.6 °F 64.4 °F 57% 30.03 in 10.0 mi SSE 5.8 mph - N/A   Clear
2:55 PM 81.3 °F 82.9 °F 64.4 °F 56% 30.03 in 10.0 mi SSE 4.6 mph - N/A   Clear
3:15 PM 81.5 °F 83.1 °F 64.6 °F 56% 30.02 in 10.0 mi SE 6.9 mph - N/A   Clear
3:35 PM 81.0 °F 82.6 °F 64.4 °F 57% 30.02 in 10.0 mi SSE 5.8 mph - N/A   Clear
3:55 PM 80.8 °F 82.6 °F 65.1 °F 59% 30.02 in 10.0 mi SSE 5.8 mph - N/A   Clear
4:15 PM 80.6 °F 82.3 °F 64.4 °F 58% 30.02 in 10.0 mi SSE 5.8 mph - N/A   Clear
4:35 PM 80.6 °F 81.9 °F 63.3 °F 55% 30.01 in 10.0 mi SSE 6.9 mph - N/A   Clear
4:55 PM 80.4 °F 82.3 °F 65.3 °F 60% 30.01 in 10.0 mi South 8.1 mph - N/A   Clear
5:15 PM 79.5 °F - 66.2 °F 64% 30.01 in 10.0 mi SSE 8.1 mph - N/A   Clear
5:35 PM 78.8 °F - 66.2 °F 65% 30.00 in 10.0 mi South 6.9 mph - N/A   Clear
5:55 PM 78.4 °F - 66.2 °F 66% 30.00 in 10.0 mi SSE 8.1 mph - N/A   Clear
6:15 PM 78.3 °F - 65.8 °F 65% 30.00 in 10.0 mi SSE 6.9 mph - N/A   Clear
6:35 PM 78.1 °F - 65.5 °F 65% 29.99 in 10.0 mi South 6.9 mph - N/A   Clear
6:55 PM 77.9 °F - 65.7 °F 66% 29.99 in 10.0 mi SSE 6.9 mph - N/A   Clear
7:15 PM 77.2 °F - 65.8 °F 68% 30.00 in 10.0 mi South 5.8 mph - N/A   Clear
7:35 PM 76.3 °F - 66.4 °F 71% 30.00 in 10.0 mi South 6.9 mph - N/A   Clear
7:55 PM 75.9 °F - 66.2 °F 72% 30.00 in 10.0 mi South 4.6 mph - N/A   Clear
8:15 PM 75.0 °F - 66.7 °F 75% 30.00 in 10.0 mi SSW 8.1 mph - N/A   Clear
8:35 PM 74.3 °F - 66.9 °F 78% 30.00 in 10.0 mi SE 5.8 mph - N/A   Clear
8:55 PM 73.6 °F - 67.1 °F 80% 30.01 in 10.0 mi SSE 5.8 mph - N/A   Clear
9:15 PM 73.8 °F - 66.6 °F 78% 30.01 in 10.0 mi South 4.6 mph - N/A   Clear
9:35 PM 73.0 °F - 66.7 °F 81% 30.01 in 10.0 mi South 3.5 mph - N/A   Clear
9:55 PM 72.7 °F - 67.1 °F 83% 30.02 in 10.0 mi SSE 4.6 mph - N/A   Clear
10:15 PM 72.3 °F - 68.5 °F 88% 30.02 in 7.0 mi South 5.8 mph - N/A   Clear
10:35 PM 72.5 °F - 68.7 °F 88% 30.02 in 7.0 mi SSE 4.6 mph - N/A   Clear
10:55 PM 72.3 °F - 70.0 °F 92% 30.02 in 7.0 mi South 5.8 mph - N/A   Clear
11:15 PM 72.0 °F - 70.2 °F 94% 30.03 in 7.0 mi SE 4.6 mph - N/A   Clear
11:35 PM 71.8 °F - 70.2 °F 95% 30.03 in 7.0 mi South 5.8 mph - N/A   Clear
11:55 PM 71.6 °F - 70.2 °F 95% 30.03 in 7.0 mi SSE 4.6 mph - N/A   Clear